When you browse on this site, cookies collect data to enhance your experience and personalize the content and advertising you see.
Visit our Privacy Policy to learn more. By continuing to use the site, you agree to this use of cookies and data.
  • In Schweiz
  • Länderverzeichnis
  • Für 7 Tage
  • Wassertemperatur
  • Wetterkarte
  • Widgets
  • user-avatar
    Anmelden

    Stündliche Wetter Radomyschl

    Heute, 21 Februar, Freitag

    Zeit Temperatur Niederschläge Wind Luftdruck Luftfeuchtigkeit
    00:00 +4°C° 0 mm 1 m/S 752 mmHg 91%
    01:00 +4°C° 0 mm 1 m/S 752 mmHg 91%
    02:00 +4°C° 0 mm 1 m/S 752 mmHg 93%
    03:00 +3°C° 0 mm 1 m/S 752 mmHg 94%
    04:00 +2°C° 0 mm 2 m/S 752 mmHg 94%
    05:00 +2°C° 0 mm 2 m/S 752 mmHg 95%
    06:00 +2°C° 0 mm 2 m/S 752 mmHg 94%
    07:00 +2°C° 0 mm 2 m/S 752 mmHg 92%
    08:00 +3°C° 0 mm 2 m/S 752 mmHg 90%
    15:00 +4°C° 0 mm 3 m/S 751 mmHg 78%
    16:00 +4°C° 0 mm 3 m/S 751 mmHg 76%
    17:00 +5°C° 0 mm 2 m/S 751 mmHg 74%
    18:00 +3°C° 0 mm 3 m/S 751 mmHg 78%
    19:00 +2°C° 0 mm 3 m/S 751 mmHg 81%
    20:00 +2°C° 0 mm 3 m/S 752 mmHg 85%
    21:00 +2°C° 0 mm 2 m/S 752 mmHg 85%
    22:00 +2°C° 0 mm 2 m/S 752 mmHg 86%
    23:00 +2°C° 0 mm 2 m/S 752 mmHg 87%

    Morgen, 22 Februar, Samstag

    Zeit Temperatur Niederschläge Wind Luftdruck Luftfeuchtigkeit
    00:00 +1°C° 0 mm 2 m/S 753 mmHg 87%
    01:00 +1°C° 0 mm 2 m/S 753 mmHg 87%
    02:00 +1°C° 0 mm 2 m/S 753 mmHg 88%
    03:00 +1°C° 0 mm 2 m/S 753 mmHg 88%
    04:00 +1°C° 0 mm 2 m/S 754 mmHg 88%
    05:00 -1°C° 0 mm 2 m/S 754 mmHg 89%
    06:00 +1°C° 0 mm 2 m/S 754 mmHg 88%
    07:00 +1°C° 0 mm 2 m/S 754 mmHg 88%
    08:00 +2°C° 0 mm 1 m/S 755 mmHg 88%
    09:00 +2°C° 0 mm 2 m/S 755 mmHg 84%
    10:00 +3°C° 0 mm 2 m/S 755 mmHg 79%
    11:00 +4°C° 0 mm 2 m/S 755 mmHg 75%
    12:00 +4°C° 0 mm 2 m/S 755 mmHg 72%
    13:00 +4°C° 0 mm 3 m/S 755 mmHg 69%
    14:00 +4°C° 0 mm 3 m/S 754 mmHg 67%
    15:00 +4°C° 0 mm 3 m/S 754 mmHg 68%
    16:00 +4°C° 0 mm 3 m/S 753 mmHg 69%
    17:00 +4°C° 0 mm 3 m/S 752 mmHg 71%
    18:00 +3°C° 0 mm 3 m/S 752 mmHg 74%
    19:00 +1°C° 0 mm 4 m/S 752 mmHg 77%
    20:00 +1°C° 0 mm 4 m/S 752 mmHg 79%
    21:00 +1°C° 0 mm 4 m/S 751 mmHg 77%
    22:00 +1°C° 0 mm 5 m/S 750 mmHg 75%
    23:00 +1°C° 0 mm 6 m/S 749 mmHg 73%

    übermorgen, 23 Februar, Sonntag

    Zeit Temperatur Niederschläge Wind Luftdruck Luftfeuchtigkeit
    00:00 +1°C° 0 mm 6 m/S 749 mmHg 72%
    01:00 0°C° 0 mm 7 m/S 748 mmHg 71%
    02:00 0°C° 0 mm 7 m/S 747 mmHg 70%
    03:00 0°C° 0.3 mm 7 m/S 746 mmHg 77%
    04:00 0°C° 0.3 mm 8 m/S 745 mmHg 85%
    05:00 -1°C° 0.3 mm 8 m/S 744 mmHg 93%
    06:00 0°C° 0.2 mm 8 m/S 744 mmHg 92%
    07:00 +1°C° 0.2 mm 8 m/S 744 mmHg 90%
    08:00 +1°C° 0.2 mm 8 m/S 743 mmHg 89%
    09:00 +1°C° 0.4 mm 8 m/S 743 mmHg 83%
    10:00 +1°C° 0.4 mm 8 m/S 743 mmHg 78%
    11:00 +2°C° 0.4 mm 7 m/S 743 mmHg 72%
    12:00 +2°C° 0.1 mm 8 m/S 743 mmHg 65%
    13:00 +4°C° 0.1 mm 8 m/S 743 mmHg 58%
    14:00 +3°C° 0.1 mm 9 m/S 743 mmHg 51%
    15:00 +4°C° 0 mm 7 m/S 743 mmHg 53%
    16:00 +3°C° 0 mm 6 m/S 742 mmHg 55%
    17:00 +4°C° 0 mm 4 m/S 742 mmHg 57%
    18:00 +3°C° 0 mm 4 m/S 742 mmHg 62%
    19:00 +1°C° 0 mm 4 m/S 742 mmHg 67%
    20:00 +1°C° 0 mm 4 m/S 742 mmHg 72%
    21:00 0°C° 0 mm 4 m/S 742 mmHg 73%
    22:00 0°C° 0 mm 4 m/S 741 mmHg 74%
    23:00 0°C° 0 mm 4 m/S 740 mmHg 75%

    24 Februar, Montag

    Zeit Temperatur Niederschläge Wind Luftdruck Luftfeuchtigkeit
    00:00 0°C° 0 mm 4 m/S 739 mmHg 77%
    01:00 0°C° 0 mm 4 m/S 738 mmHg 79%
    02:00 0°C° 0 mm 4 m/S 737 mmHg 81%
    03:00 -1°C° 1 mm 4 m/S 734 mmHg 87%
    04:00 -1°C° 1 mm 5 m/S 732 mmHg 92%
    05:00 -2°C° 1 mm 6 m/S 730 mmHg 97%
    06:00 -2°C° 3.8 mm 7 m/S 729 mmHg 97%
    07:00 -4°C° 3.8 mm 9 m/S 729 mmHg 97%
    08:00 -4°C° 3.8 mm 10 m/S 729 mmHg 97%
    09:00 -3°C° 0.4 mm 9 m/S 730 mmHg 95%
    10:00 -3°C° 0.4 mm 9 m/S 732 mmHg 93%
    11:00 -2°C° 0.4 mm 8 m/S 734 mmHg 91%
    12:00 -1°C° 0.1 mm 8 m/S 736 mmHg 89%
    13:00 -1°C° 0.1 mm 8 m/S 737 mmHg 88%
    14:00 -1°C° 0.1 mm 9 m/S 738 mmHg 86%
    15:00 -1°C° 0 mm 8 m/S 739 mmHg 84%
    16:00 -1°C° 0 mm 8 m/S 740 mmHg 83%
    17:00 -1°C° 0 mm 7 m/S 741 mmHg 81%
    18:00 -1°C° 0 mm 7 m/S 742 mmHg 78%
    19:00 -2°C° 0 mm 7 m/S 743 mmHg 75%
    20:00 -2°C° 0 mm 6 m/S 744 mmHg 72%
    21:00 -3°C° 0 mm 6 m/S 745 mmHg 74%
    22:00 -3°C° 0 mm 6 m/S 746 mmHg 76%
    23:00 -4°C° 0 mm 5 m/S 746 mmHg 78%

    25 Februar, Dienstag

    Zeit Temperatur Niederschläge Wind Luftdruck Luftfeuchtigkeit
    00:00 -4°C° 0 mm 5 m/S 747 mmHg 79%
    01:00 -4°C° 0 mm 5 m/S 747 mmHg 80%
    02:00 -4°C° 0 mm 4 m/S 748 mmHg 81%
    03:00 -4°C° 0 mm 4 m/S 748 mmHg 82%
    04:00 -5°C° 0 mm 3 m/S 748 mmHg 84%
    05:00 -5°C° 0 mm 3 m/S 748 mmHg 86%
    06:00 -5°C° 0 mm 3 m/S 748 mmHg 85%
    07:00 -3°C° 0 mm 2 m/S 748 mmHg 85%
    08:00 -3°C° 0 mm 2 m/S 748 mmHg 84%
    09:00 -2°C° 0 mm 3 m/S 747 mmHg 82%
    10:00 0°C° 0 mm 3 m/S 747 mmHg 80%
    11:00 0°C° 0 mm 4 m/S 746 mmHg 79%
    12:00 +1°C° 0 mm 5 m/S 746 mmHg 77%
    13:00 +1°C° 0 mm 5 m/S 745 mmHg 75%
    14:00 +2°C° 0 mm 6 m/S 745 mmHg 72%
    15:00 +1°C° 0 mm 5 m/S 744 mmHg 79%
    16:00 +1°C° 0 mm 5 m/S 743 mmHg 85%
    17:00 0°C° 0 mm 5 m/S 742 mmHg 92%
    18:00 0°C° 0 mm 5 m/S 742 mmHg 90%
    19:00 +1°C° 0 mm 5 m/S 742 mmHg 89%
    20:00 +1°C° 0 mm 4 m/S 741 mmHg 88%
    21:00 +1°C° 0 mm 4 m/S 741 mmHg 86%
    22:00 +1°C° 0 mm 4 m/S 741 mmHg 84%
    23:00 +1°C° 0 mm 4 m/S 740 mmHg 81%

    26 Februar, Mittwoch

    Zeit Temperatur Niederschläge Wind Luftdruck Luftfeuchtigkeit
    00:00 +1°C° 0.1 mm 4 m/S 740 mmHg 84%
    01:00 +1°C° 0.1 mm 4 m/S 740 mmHg 86%
    02:00 +2°C° 0.1 mm 3 m/S 739 mmHg 88%
    03:00 +2°C° 0 mm 3 m/S 739 mmHg 87%
    04:00 +2°C° 0 mm 3 m/S 738 mmHg 85%
    05:00 +2°C° 0 mm 3 m/S 738 mmHg 84%
    06:00 +2°C° 0.1 mm 3 m/S 738 mmHg 85%
    07:00 +2°C° 0.1 mm 3 m/S 737 mmHg 86%
    08:00 +2°C° 0.1 mm 3 m/S 737 mmHg 87%
    09:00 +2°C° 0.1 mm 3 m/S 737 mmHg 87%
    10:00 +3°C° 0.1 mm 4 m/S 737 mmHg 87%
    11:00 +3°C° 0.1 mm 4 m/S 737 mmHg 87%
    12:00 +4°C° 0 mm 4 m/S 736 mmHg 84%
    13:00 +5°C° 0 mm 4 m/S 736 mmHg 81%
    14:00 +6°C° 0 mm 4 m/S 736 mmHg 77%
    15:00 +7°C° 0 mm 3 m/S 735 mmHg 79%
    16:00 +5°C° 0 mm 3 m/S 735 mmHg 81%
    17:00 +5°C° 0 mm 3 m/S 735 mmHg 83%
    18:00 +5°C° 0 mm 3 m/S 735 mmHg 85%
    19:00 +4°C° 0 mm 3 m/S 735 mmHg 88%
    20:00 +4°C° 0 mm 3 m/S 735 mmHg 90%
    21:00 +4°C° 0.1 mm 3 m/S 735 mmHg 90%
    22:00 +5°C° 0.1 mm 2 m/S 735 mmHg 91%
    23:00 +5°C° 0.1 mm 2 m/S 735 mmHg 91%
    Mehr zeigen